Location: Boiro
(42.6475°N, 8.8834°W)
Time: 19:09:16
(UTC+01:00)

A-11 Canister half - Pass Details

Date: 05 December 2021
Orbit: 1516 x 1684 km, 47.2° (Epoch: 26 January)

Event Time Altitude Azimuth Distance (km) Brightness Sun altitude
Rises 14:01:56 0° 295° (WNW) 4,885 11.5 24.4°
Reaches altitude 10° 14:05:04 10° 293° (WNW) 3,913 11.1 24.3°
Maximum altitude 14:15:03 69° 214° (SSW) 1,780 10.2 24.0°
Drops below altitude 10° 14:25:05 10° 134° (SE) 3,936 11.6 23.5°
Sets 14:28:15 0° 131° (SE) 4,914 12.0 23.4°
